"Period start","avg(HW err(1)/warn(2) (#))","avg(Visibility (m))","avg(Weather code (#))","avg(Precip intensity (mm/h))","min(HW err(1)/warn(2) (#))","max(HW err(1)/warn(2) (#))","std(HW err(1)/warn(2) (#))","med(HW err(1)/warn(2) (#))","min(Visibility (m))","max(Visibility (m))","std(Visibility (m))","med(Visibility (m))","min(Weather code (#))","max(Weather code (#))","std(Weather code (#))","med(Weather code (#))","min(Precip intensity (mm/h))","max(Precip intensity (mm/h))","std(Precip intensity (mm/h))","med(Precip intensity (mm/h))"
2017-09-16 00:00:00,2,50000,0,0.00,2,2,0,2,50000,50000,0,50000,0,0,0,0,0.00,0.00,0.00,0.00
2017-09-16 00:10:00,2,49966,0,0.00,2,2,0,2,49737,50000,80,50000,0,0,0,0,0.00,0.00,0.00,0.00
2017-09-16 00:20:00,2,50000,0,0.00,2,2,0,2,50000,50000,0,50000,0,0,0,0,0.00,0.00,0.00,0.00
2017-09-16 00:30:00,2,50000,0,0.00,2,2,0,2,50000,50000,0,50000,0,0,0,0,0.00,0.00,0.00,0.00
2017-09-16 00:40:00,2,50000,0,0.00,2,2,0,2,50000,50000,0,50000,0,0,0,0,0.00,0.00,0.00,0.00
2017-09-16 00:50:00,2,49995,0,0.00,2,2,0,2,49949,50000,15,50000,0,0,0,0,0.00,0.00,0.00,0.00
2017-09-16 01:00:00,2,49974,0,0.00,2,2,0,2,49743,50000,77,50000,0,0,0,0,0.00,0.00,0.00,0.00
2017-09-16 01:10:00,2,50000,0,0.00,2,2,0,2,50000,50000,0,50000,0,0,0,0,0.00,0.00,0.00,0.00
2017-09-16 01:20:00,2,50000,0,0.00,2,2,0,2,50000,50000,0,50000,0,0,0,0,0.00,0.00,0.00,0.00
2017-09-16 01:30:00,2,49636,0,0.00,2,2,0,2,48104,50000,728,50000,0,0,0,0,0.00,0.00,0.00,0.00
2017-09-16 01:40:00,2,50000,0,0.00,2,2,0,2,50000,50000,0,50000,0,0,0,0,0.00,0.00,0.00,0.00
2017-09-16 01:50:00,2,49989,0,0.00,2,2,0,2,49892,50000,32,50000,0,0,0,0,0.00,0.00,0.00,0.00
2017-09-16 02:00:00,2,50000,0,0.00,2,2,0,2,50000,50000,0,50000,0,0,0,0,0.00,0.00,0.00,0.00
2017-09-16 02:10:00,2,49579,0,0.00,2,2,0,2,46255,50000,1117,50000,0,0,0,0,0.00,0.00,0.00,0.00
2017-09-16 02:20:00,2,50000,0,0.00,2,2,0,2,50000,50000,0,50000,0,0,0,0,0.00,0.00,0.00,0.00
2017-09-16 02:30:00,2,50000,0,0.00,2,2,0,2,50000,50000,0,50000,0,0,0,0,0.00,0.00,0.00,0.00
2017-09-16 02:40:00,2,49034,0,0.00,2,2,0,2,45195,50000,1474,50000,0,0,0,0,0.00,0.00,0.00,0.00
2017-09-16 02:50:00,2,49685,0,0.00,2,2,0,2,46851,50000,945,50000,0,0,0,0,0.00,0.00,0.00,0.00
2017-09-16 03:00:00,2,50000,0,0.00,2,2,0,2,50000,50000,0,50000,0,0,0,0,0.00,0.00,0.00,0.00
2017-09-16 03:10:00,2,50000,0,0.00,2,2,0,2,50000,50000,0,50000,0,0,0,0,0.00,0.00,0.00,0.00
2017-09-16 03:20:00,2,50000,0,0.00,2,2,0,2,50000,50000,0,50000,0,0,0,0,0.00,0.00,0.00,0.00
2017-09-16 03:30:00,2,49840,0,0.00,2,2,0,2,48405,50000,478,50000,0,0,0,0,0.00,0.00,0.00,0.00
2017-09-16 03:40:00,2,50000,0,0.00,2,2,0,2,50000,50000,0,50000,0,0,0,0,0.00,0.00,0.00,0.00
2017-09-16 03:50:00,2,49483,0,0.00,2,2,0,2,45560,50000,1326,50000,0,0,0,0,0.00,0.00,0.00,0.00
2017-09-16 04:00:00,2,49223,0,0.00,2,2,0,2,44954,50000,1639,50000,0,0,0,0,0.00,0.00,0.00,0.00
2017-09-16 04:10:00,2,50000,0,0.00,2,2,0,2,50000,50000,0,50000,0,0,0,0,0.00,0.00,0.00,0.00
2017-09-16 04:20:00,2,50000,0,0.00,2,2,0,2,50000,50000,0,50000,0,0,0,0,0.00,0.00,0.00,0.00
2017-09-16 04:30:00,2,50000,0,0.00,2,2,0,2,50000,50000,0,50000,0,0,0,0,0.00,0.00,0.00,0.00
2017-09-16 04:40:00,2,49553,0,0.00,2,2,0,2,45533,50000,1340,50000,0,0,0,0,0.00,0.00,0.00,0.00
2017-09-16 04:50:00,2,49951,0,0.00,2,2,0,2,49513,50000,146,50000,0,0,0,0,0.00,0.00,0.00,0.00
2017-09-16 05:00:00,2,50000,0,0.00,2,2,0,2,50000,50000,0,50000,0,0,0,0,0.00,0.00,0.00,0.00
2017-09-16 05:10:00,2,49943,0,0.00,2,2,0,2,49434,50000,170,50000,0,0,0,0,0.00,0.00,0.00,0.00
2017-09-16 05:20:00,2,50000,0,0.00,2,2,0,2,50000,50000,0,50000,0,0,0,0,0.00,0.00,0.00,0.00
2017-09-16 05:30:00,2,50000,0,0.00,2,2,0,2,50000,50000,0,50000,0,0,0,0,0.00,0.00,0.00,0.00
2017-09-16 05:40:00,2,49948,0,0.00,2,2,0,2,49477,50000,157,50000,0,0,0,0,0.00,0.00,0.00,0.00
2017-09-16 05:50:00,2,50000,0,0.00,2,2,0,2,50000,50000,0,50000,0,0,0,0,0.00,0.00,0.00,0.00
2017-09-16 06:00:00,2,50000,0,0.00,2,2,0,2,50000,50000,0,50000,0,0,0,0,0.00,0.00,0.00,0.00
2017-09-16 06:10:00,2,49848,0,0.00,2,2,0,2,48480,50000,456,50000,0,0,0,0,0.00,0.00,0.00,0.00
2017-09-16 06:20:00,2,50000,0,0.00,2,2,0,2,50000,50000,0,50000,0,0,0,0,0.00,0.00,0.00,0.00
2017-09-16 06:30:00,2,50000,0,0.00,2,2,0,2,50000,50000,0,50000,0,0,0,0,0.00,0.00,0.00,0.00
2017-09-16 06:40:00,2,50000,0,0.00,2,2,0,2,50000,50000,0,50000,0,0,0,0,0.00,0.00,0.00,0.00
2017-09-16 06:50:00,2,49507,0,0.00,2,2,0,2,47322,50000,990,50000,0,0,0,0,0.00,0.00,0.00,0.00
2017-09-16 07:00:00,2,50000,0,0.00,2,2,0,2,50000,50000,0,50000,0,0,0,0,0.00,0.00,0.00,0.00
2017-09-16 07:10:00,2,50000,0,0.00,2,2,0,2,50000,50000,0,50000,0,0,0,0,0.00,0.00,0.00,0.00
2017-09-16 07:20:00,2,50000,0,0.00,2,2,0,2,50000,50000,0,50000,0,0,0,0,0.00,0.00,0.00,0.00
2017-09-16 07:30:00,2,50000,0,0.00,2,2,0,2,50000,50000,0,50000,0,0,0,0,0.00,0.00,0.00,0.00
2017-09-16 07:40:00,2,50000,0,0.00,2,2,0,2,50000,50000,0,50000,0,0,0,0,0.00,0.00,0.00,0.00
2017-09-16 07:50:00,2,50000,0,0.00,2,2,0,2,50000,50000,0,50000,0,0,0,0,0.00,0.00,0.00,0.00
2017-09-16 08:00:00,2,50000,0,0.00,2,2,0,2,50000,50000,0,50000,0,0,0,0,0.00,0.00,0.00,0.00
2017-09-16 08:10:00,2,50000,0,0.00,2,2,0,2,50000,50000,0,50000,0,0,0,0,0.00,0.00,0.00,0.00
2017-09-16 08:20:00,2,50000,0,0.00,2,2,0,2,50000,50000,0,50000,0,0,0,0,0.00,0.00,0.00,0.00
2017-09-16 08:30:00,2,50000,0,0.00,2,2,0,2,50000,50000,0,50000,0,0,0,0,0.00,0.00,0.00,0.00
2017-09-16 08:40:00,2,50000,0,0.00,2,2,0,2,50000,50000,0,50000,0,0,0,0,0.00,0.00,0.00,0.00
2017-09-16 08:50:00,2,50000,0,0.00,2,2,0,2,50000,50000,0,50000,0,0,0,0,0.00,0.00,0.00,0.00
2017-09-16 09:00:00,2,50000,0,0.00,2,2,0,2,50000,50000,0,50000,0,0,0,0,0.00,0.00,0.00,0.00
2017-09-16 09:10:00,2,50000,0,0.00,2,2,0,2,50000,50000,0,50000,0,0,0,0,0.00,0.00,0.00,0.00
2017-09-16 09:20:00,2,50000,0,0.00,2,2,0,2,50000,50000,0,50000,0,0,0,0,0.00,0.00,0.00,0.00
2017-09-16 09:30:00,2,50000,0,0.00,2,2,0,2,50000,50000,0,50000,0,0,0,0,0.00,0.00,0.00,0.00
2017-09-16 09:40:00,2,50000,0,0.00,2,2,0,2,50000,50000,0,50000,0,0,0,0,0.00,0.00,0.00,0.00
2017-09-16 09:50:00,2,50000,0,0.00,2,2,0,2,50000,50000,0,50000,0,0,0,0,0.00,0.00,0.00,0.00
2017-09-16 10:00:00,2,50000,0,0.00,2,2,0,2,50000,50000,0,50000,0,0,0,0,0.00,0.00,0.00,0.00
2017-09-16 10:10:00,2,50000,0,0.00,2,2,0,2,50000,50000,0,50000,0,0,0,0,0.00,0.00,0.00,0.00
2017-09-16 10:20:00,2,50000,0,0.00,2,2,0,2,50000,50000,0,50000,0,0,0,0,0.00,0.00,0.00,0.00
2017-09-16 10:30:00,2,50000,0,0.00,2,2,0,2,50000,50000,0,50000,0,0,0,0,0.00,0.00,0.00,0.00
2017-09-16 10:40:00,2,50000,0,0.00,2,2,0,2,50000,50000,0,50000,0,0,0,0,0.00,0.00,0.00,0.00
2017-09-16 10:50:00,2,15588,24,0.04,2,2,0,2,3162,50000,16887,5194,0,77,26,20,0.00,0.15,0.05,0.00
2017-09-16 11:00:00,2,8592,62,0.05,2,2,0,2,2072,33020,9441,3272,0,77,31,77,0.00,0.15,0.05,0.05
2017-09-16 11:10:00,2,14658,38,0.07,2,2,0,2,1902,50000,18613,2648,0,77,36,40,0.00,0.30,0.09,0.03
2017-09-16 11:20:00,2,5530,67,0.07,2,2,0,2,2054,17250,4446,3400,0,77,22,74,0.00,0.30,0.09,0.05
2017-09-16 11:30:00,2,11488,62,0.04,2,2,0,2,2614,34084,10441,4757,0,77,31,77,0.00,0.15,0.05,0.05
2017-09-16 11:40:00,2,25879,0,0.00,2,2,0,2,10247,50000,13211,20404,0,0,0,0,0.00,0.00,0.00,0.00
2017-09-16 11:50:00,2,49524,0,0.00,2,2,0,2,45242,50000,1427,50000,0,0,0,0,0.00,0.00,0.00,0.00
2017-09-16 12:00:00,2,50000,0,0.00,2,2,0,2,50000,50000,0,50000,0,0,0,0,0.00,0.00,0.00,0.00
2017-09-16 12:10:00,2,46129,0,0.00,2,2,0,2,32201,50000,6343,50000,0,0,0,0,0.00,0.00,0.00,0.00
2017-09-16 12:20:00,2,48902,0,0.00,2,2,0,2,45215,50000,1859,50000,0,0,0,0,0.00,0.00,0.00,0.00
2017-09-16 12:30:00,2,50000,0,0.00,2,2,0,2,50000,50000,0,50000,0,0,0,0,0.00,0.00,0.00,0.00
2017-09-16 12:40:00,2,50000,0,0.00,2,2,0,2,50000,50000,0,50000,0,0,0,0,0.00,0.00,0.00,0.00
2017-09-16 12:50:00,2,50000,0,0.00,2,2,0,2,50000,50000,0,50000,0,0,0,0,0.00,0.00,0.00,0.00
2017-09-16 13:00:00,2,50000,0,0.00,2,2,0,2,50000,50000,0,50000,0,0,0,0,0.00,0.00,0.00,0.00
2017-09-16 13:10:00,2,50000,0,0.00,2,2,0,2,50000,50000,0,50000,0,0,0,0,0.00,0.00,0.00,0.00
2017-09-16 13:20:00,2,50000,0,0.00,2,2,0,2,50000,50000,0,50000,0,0,0,0,0.00,0.00,0.00,0.00
2017-09-16 13:30:00,2,50000,0,0.00,2,2,0,2,50000,50000,0,50000,0,0,0,0,0.00,0.00,0.00,0.00
2017-09-16 13:40:00,2,50000,0,0.00,2,2,0,2,50000,50000,0,50000,0,0,0,0,0.00,0.00,0.00,0.00
2017-09-16 13:50:00,2,50000,0,0.00,2,2,0,2,50000,50000,0,50000,0,0,0,0,0.00,0.00,0.00,0.00
2017-09-16 14:00:00,2,50000,0,0.00,2,2,0,2,50000,50000,0,50000,0,0,0,0,0.00,0.00,0.00,0.00
2017-09-16 14:10:00,2,50000,0,0.00,2,2,0,2,50000,50000,0,50000,0,0,0,0,0.00,0.00,0.00,0.00
2017-09-16 14:20:00,2,50000,0,0.00,2,2,0,2,50000,50000,0,50000,0,0,0,0,0.00,0.00,0.00,0.00
2017-09-16 14:30:00,2,49993,0,0.00,2,2,0,2,49929,50000,21,50000,0,0,0,0,0.00,0.00,0.00,0.00
2017-09-16 14:40:00,2,50000,0,0.00,2,2,0,2,50000,50000,0,50000,0,0,0,0,0.00,0.00,0.00,0.00
2017-09-16 14:50:00,2,50000,0,0.00,2,2,0,2,50000,50000,0,50000,0,0,0,0,0.00,0.00,0.00,0.00
2017-09-16 15:00:00,2,50000,0,0.00,2,2,0,2,50000,50000,0,50000,0,0,0,0,0.00,0.00,0.00,0.00
2017-09-16 15:10:00,2,50000,0,0.00,2,2,0,2,50000,50000,0,50000,0,0,0,0,0.00,0.00,0.00,0.00
2017-09-16 15:20:00,2,50000,0,0.00,2,2,0,2,50000,50000,0,50000,0,0,0,0,0.00,0.00,0.00,0.00
2017-09-16 15:30:00,2,49860,0,0.00,2,2,0,2,49109,50000,293,50000,0,0,0,0,0.00,0.00,0.00,0.00
2017-09-16 15:40:00,2,50000,0,0.00,2,2,0,2,50000,50000,0,50000,0,0,0,0,0.00,0.00,0.00,0.00
2017-09-16 15:50:00,2,50000,0,0.00,2,2,0,2,50000,50000,0,50000,0,0,0,0,0.00,0.00,0.00,0.00
2017-09-16 16:00:00,2,50000,0,0.00,2,2,0,2,50000,50000,0,50000,0,0,0,0,0.00,0.00,0.00,0.00
2017-09-16 16:10:00,2,50000,0,0.00,2,2,0,2,50000,50000,0,50000,0,0,0,0,0.00,0.00,0.00,0.00
2017-09-16 16:20:00,2,50000,0,0.00,2,2,0,2,50000,50000,0,50000,0,0,0,0,0.00,0.00,0.00,0.00
2017-09-16 16:30:00,2,50000,0,0.00,2,2,0,2,50000,50000,0,50000,0,0,0,0,0.00,0.00,0.00,0.00
2017-09-16 16:40:00,2,50000,0,0.00,2,2,0,2,50000,50000,0,50000,0,0,0,0,0.00,0.00,0.00,0.00
2017-09-16 16:50:00,2,50000,0,0.00,2,2,0,2,50000,50000,0,50000,0,0,0,0,0.00,0.00,0.00,0.00
2017-09-16 17:00:00,2,50000,0,0.00,2,2,0,2,50000,50000,0,50000,0,0,0,0,0.00,0.00,0.00,0.00
2017-09-16 17:10:00,2,50000,0,0.00,2,2,0,2,50000,50000,0,50000,0,0,0,0,0.00,0.00,0.00,0.00
2017-09-16 17:20:00,2,50000,0,0.00,2,2,0,2,50000,50000,0,50000,0,0,0,0,0.00,0.00,0.00,0.00
2017-09-16 17:30:00,2,50000,0,0.00,2,2,0,2,50000,50000,0,50000,0,0,0,0,0.00,0.00,0.00,0.00
2017-09-16 17:40:00,2,50000,0,0.00,2,2,0,2,50000,50000,0,50000,0,0,0,0,0.00,0.00,0.00,0.00
2017-09-16 17:50:00,2,50000,0,0.00,2,2,0,2,50000,50000,0,50000,0,0,0,0,0.00,0.00,0.00,0.00
2017-09-16 18:00:00,2,50000,0,0.00,2,2,0,2,50000,50000,0,50000,0,0,0,0,0.00,0.00,0.00,0.00
2017-09-16 18:10:00,2,49715,0,0.00,2,2,0,2,47153,50000,854,50000,0,0,0,0,0.00,0.00,0.00,0.00
2017-09-16 18:20:00,2,49951,0,0.00,2,2,0,2,49506,50000,148,50000,0,0,0,0,0.00,0.00,0.00,0.00
2017-09-16 18:30:00,2,50000,0,0.00,2,2,0,2,50000,50000,0,50000,0,0,0,0,0.00,0.00,0.00,0.00
2017-09-16 18:40:00,2,49866,0,0.00,2,2,0,2,48662,50000,401,50000,0,0,0,0,0.00,0.00,0.00,0.00
2017-09-16 18:50:00,2,50000,0,0.00,2,2,0,2,50000,50000,0,50000,0,0,0,0,0.00,0.00,0.00,0.00
2017-09-16 19:00:00,2,50000,0,0.00,2,2,0,2,50000,50000,0,50000,0,0,0,0,0.00,0.00,0.00,0.00
2017-09-16 19:10:00,2,50000,0,0.00,2,2,0,2,50000,50000,0,50000,0,0,0,0,0.00,0.00,0.00,0.00
2017-09-16 19:20:00,2,50000,0,0.00,2,2,0,2,50000,50000,0,50000,0,0,0,0,0.00,0.00,0.00,0.00
2017-09-16 19:30:00,2,50000,0,0.00,2,2,0,2,50000,50000,0,50000,0,0,0,0,0.00,0.00,0.00,0.00
2017-09-16 19:40:00,2,50000,0,0.00,2,2,0,2,50000,50000,0,50000,0,0,0,0,0.00,0.00,0.00,0.00
2017-09-16 19:50:00,2,50000,0,0.00,2,2,0,2,50000,50000,0,50000,0,0,0,0,0.00,0.00,0.00,0.00
2017-09-16 20:00:00,2,50000,0,0.00,2,2,0,2,50000,50000,0,50000,0,0,0,0,0.00,0.00,0.00,0.00
2017-09-16 20:10:00,2,50000,0,0.00,2,2,0,2,50000,50000,0,50000,0,0,0,0,0.00,0.00,0.00,0.00
2017-09-16 20:20:00,2,50000,0,0.00,2,2,0,2,50000,50000,0,50000,0,0,0,0,0.00,0.00,0.00,0.00
2017-09-16 20:30:00,2,49890,0,0.00,2,2,0,2,48895,50000,332,50000,0,0,0,0,0.00,0.00,0.00,0.00
2017-09-16 20:40:00,2,50000,0,0.00,2,2,0,2,50000,50000,0,50000,0,0,0,0,0.00,0.00,0.00,0.00
2017-09-16 20:50:00,2,50000,0,0.00,2,2,0,2,50000,50000,0,50000,0,0,0,0,0.00,0.00,0.00,0.00
2017-09-16 21:00:00,2,50000,0,0.00,2,2,0,2,50000,50000,0,50000,0,0,0,0,0.00,0.00,0.00,0.00
2017-09-16 21:10:00,2,35441,24,0.01,2,2,0,2,16933,50000,13953,38628,0,41,20,40,0.00,0.05,0.02,0.00
2017-09-16 21:20:00,2,21205,20,0.05,2,2,0,2,4544,50000,16222,15258,0,41,20,20,0.00,0.40,0.12,0.00
2017-09-16 21:30:00,2,30364,37,0.00,2,2,0,2,13961,50000,14960,26022,0,77,37,36,0.00,0.00,0.00,0.00
2017-09-16 21:40:00,2,50000,0,0.00,2,2,0,2,50000,50000,0,50000,0,0,0,0,0.00,0.00,0.00,0.00
2017-09-16 21:50:00,2,50000,0,0.00,2,2,0,2,50000,50000,0,50000,0,0,0,0,0.00,0.00,0.00,0.00
2017-09-16 22:00:00,2,48925,0,0.00,2,2,0,2,45596,50000,1628,49884,0,0,0,0,0.00,0.00,0.00,0.00
2017-09-16 22:10:00,2,40084,0,0.00,2,2,0,2,9994,50000,15391,49688,0,0,0,0,0.00,0.00,0.00,0.00
2017-09-16 22:20:00,2,13518,37,0.03,2,2,0,2,4599,27390,8141,10566,0,41,12,41,0.00,0.10,0.04,0.00
2017-09-16 22:30:00,2,13856,66,0.08,2,2,0,2,5589,33070,7434,13634,41,77,13,71,0.00,0.45,0.13,0.05
2017-09-16 22:40:00,2,20895,43,0.29,2,2,0,2,4806,45454,15953,11166,0,71,35,71,0.00,0.85,0.34,0.07
2017-09-16 22:50:00,2,29483,28,0.23,2,2,0,2,5712,50000,17221,34431,0,71,35,0,0.00,1.15,0.44,0.00
2017-09-16 23:00:00,2,2430,71,2.99,2,2,0,2,1476,3534,628,2370,71,71,0,71,0.80,5.15,1.14,2.95
2017-09-16 23:10:00,2,5470,64,1.92,2,2,0,2,1699,22266,5993,2334,0,71,21,71,0.00,4.35,1.33,1.77
2017-09-16 23:20:00,2,25575,4,0.01,2,2,0,2,5545,48773,13462,20540,0,40,12,0,0.00,0.05,0.02,0.00
2017-09-16 23:30:00,2,9941,65,0.15,2,2,0,2,4242,17706,4114,9862,41,77,16,74,0.00,0.80,0.24,0.05
2017-09-16 23:40:00,2,20821,72,0.18,2,2,0,2,3145,49173,15482,16066,71,77,2,71,0.00,1.60,0.47,0.03
2017-09-16 23:50:00,2,10732,75,0.18,2,2,0,2,2838,26856,8094,7272,71,77,3,77,0.00,1.00,0.31,0.03
